Aviation Digital Data Service (ADDS)

Output produced by METARs form (1137 UTC 25 June 2019)
found at http://www.aviationweather.gov/metar/data/
 
Forecast for: LIML (MILANO/LINATE , IT)
Text: TAF LIML 251100Z 2512/2612 VRB05KT CAVOK
Forecast period: 1200 UTC 25 June 2019 to 1200 UTC 26 June 2019
Forecast type: FROM: standard forecast or significant change
Winds: variable direction winds at 6 MPH (5 knots; 2.6 m/s)
Visibility: 6 or more miles 10+ km)
Ceiling: unknown
Clouds: missing
Weather: NSW  (no significant weather)